Bonaire, Netherlands

6:19 PM AST on August 20, 2017 (GMT -0400)
Flamingo

Weather History for TNCB - July, 2011

Change the Weather History Date:

Monday, July 25, 2011

  Actual Average Record
Temperature  
Mean Temperature 84 °F -  
Max Temperature 88 °F 88 °F 91 °F (1998)
Min Temperature 81 °F 81 °F 78 °F (1996)
Cooling Degree Days 20    
Growing Degree Days 34 (Base 50)    
Moisture  
Dew Point 76 °F    
Average Humidity 74    
Maximum Humidity 84    
Minimum Humidity 57    
Precipitation  
Precipitation 0.00 in - - ()
Sea Level Pressure  
Sea Level Pressure 29.89 in    
Wind  
Wind Speed 14 mph ()    
Max Wind Speed 21 mph    
Max Gust Speed -    
Visibility 7.0 miles    
Events      
Averages and records for this station are not official NWS values.
T = Trace of Precipitation, MM = Missing Value Source: Averaged Metar Reports

Daily Weather History Graph

Daily Weather History Graph

Search for Another Location

Airport or City:

Trip Planner

Search our weather history database for the weather conditions in past years. The results will help you decide how hot, cold, wet, or windy it might be!

Date:

Astronomy

Jul. 25, 2011 Rise Set
Actual Time 6:18 AM AST 7:00 PM AST
Civil Twilight 5:55 AM AST 7:23 PM AST
Nautical Twilight 5:29 AM AST 7:50 PM AST
Astronomical Twilight 5:02 AM AST 8:16 PM AST
Moon 1:29 AM AST (7/25) 2:34 PM AST (7/25)
Length of Visible Light 13h 27m
Length of Day
12h 42m
Waning Crescent, 27% of the Moon is Illuminated
Jul 25
Waning Crescent
Jul 30
New
Aug 6
First Quarter
Aug 13
Full
Aug 21
Last Quarter

Hourly Weather History & Observations

Time (AST) Temp. Heat Index Dew Point Humidity Pressure Visibility Wind Dir Wind Speed Gust Speed Precip Events Conditions
12:00 AM 82.4 °F 90.9 °F 77.0 °F 84% 29.95 in 6.2 mi East 13.8 mph - N/A   Scattered Clouds
1:00 AM 82.4 °F 90.9 °F 77.0 °F 84% 29.92 in 6.2 mi ESE 13.8 mph - N/A   Scattered Clouds
2:00 AM 82 °F - 76 °F 78%  in 6 mi East 15.0 mph - -   Clear
2:00 AM 82.4 °F 90.9 °F 77.0 °F 84% 29.92 in 6.2 mi East 15.0 mph - N/A   Scattered Clouds
3:00 AM 82.4 °F 89.5 °F 75.2 °F 79% 29.89 in - ESE 12.7 mph - N/A   Unknown
4:00 AM 80.6 °F 86.2 °F 75.2 °F 84% 29.89 in - ESE 13.8 mph - N/A   Unknown
5:00 AM 81 °F - 75 °F 77%  in - East 13.8 mph - -   Clear
5:00 AM 80.6 °F 86.2 °F 75.2 °F 84% 29.89 in - East 13.8 mph - N/A   Unknown
6:00 AM 80.6 °F 86.2 °F 75.2 °F 84% 29.89 in - ESE 13.8 mph - N/A   Unknown
8:00 AM 84 °F - 76 °F 70% 29.93 in 19 mi ESE 17.3 mph - -   Partly Cloudy
8:00 AM 84.2 °F 92.3 °F 75.2 °F 74% 29.92 in 6.2 mi ESE 16.1 mph - N/A   Scattered Clouds
9:00 AM 86.0 °F 96.9 °F 77.0 °F 74% 29.92 in 6.2 mi ESE 19.6 mph - N/A   Scattered Clouds
10:00 AM 86.0 °F 95.1 °F 75.2 °F 70% 29.92 in 6.2 mi ESE 20.7 mph - N/A   Scattered Clouds
11:00 AM 87 °F - 76 °F 61% 29.95 in 22 mi ESE 20.7 mph - -   Partly Cloudy
11:00 AM 86.0 °F 95.1 °F 75.2 °F 70% 29.92 in 6.2 mi ESE 18.4 mph - N/A   Scattered Clouds
12:00 PM 87.8 °F 95.6 °F 73.4 °F 62% 29.92 in 6.2 mi ESE 18.4 mph - N/A   Scattered Clouds
1:00 PM 87.8 °F 97.6 °F 75.2 °F 66% 29.92 in - East 20.7 mph - N/A   Unknown
2:00 PM 88 °F - 75 °F 57% 29.90 in 22 mi ESE 18.4 mph - -   Scattered Clouds
2:00 PM 87.8 °F 97.6 °F 75.2 °F 66% 29.89 in 6.2 mi ESE 19.6 mph - N/A   Partly Cloudy
3:00 PM 87.8 °F 97.6 °F 75.2 °F 66% 29.86 in 6.2 mi East 18.4 mph - N/A   Partly Cloudy
4:00 PM 87.8 °F 97.6 °F 75.2 °F 66% 29.83 in 6.2 mi East 17.3 mph - N/A   Partly Cloudy
5:00 PM 88 °F - 75 °F 57% 29.84 in 22 mi East 16.1 mph - -   Scattered Clouds
5:00 PM 87.8 °F 97.6 °F 75.2 °F 66% 29.83 in 6.2 mi East 16.1 mph - N/A   Partly Cloudy
6:00 PM 86.0 °F 96.9 °F 77.0 °F 74% 29.83 in 6.2 mi East 15.0 mph - N/A   Partly Cloudy
7:00 PM 82.4 °F 90.9 °F 77.0 °F 84% 29.83 in - East 15.0 mph - N/A   Unknown
8:00 PM 83 °F - 77 °F 76% 29.88 in 22 mi ESE 11.5 mph - -   Partly Cloudy
8:00 PM 82.4 °F 90.9 °F 77.0 °F 84% 29.86 in 6.2 mi ESE 11.5 mph - N/A   Scattered Clouds
9:00 PM 82.4 °F 90.9 °F 77.0 °F 84% 29.86 in - East 11.5 mph - N/A   Unknown
11:00 PM 82 °F - 77 °F 79%  in - East 10.4 mph - -   Clear
11:00 PM 82.4 °F 90.9 °F 77.0 °F 84% 29.92 in - East 10.4 mph - N/A   Unknown